Springfield, CO

7:23 PM MDT on August 22, 2017 (GMT -0600)
Springfield

Weather History for KSPD - April, 2014

Change the Weather History Date:

Thursday, April 17, 2014

  Actual Average Record
Temperature  
Mean Temperature 43 °F -  
Max Temperature 51 °F 67 °F 89 °F (2006)
Min Temperature 35 °F 37 °F 21 °F (1999)
Degree Days  
Heating Degree Days 22 13  
Month to date heating degree days 303 262  
Since 1 July heating degree days 5012 4955  
Cooling Degree Days 0 0  
Month to date cooling degree days 3 0  
Year to date cooling degree days 3 0  
Moisture  
Dew Point 36 °F    
Average Humidity 81    
Maximum Humidity 100    
Minimum Humidity 61    
Precipitation  
Precipitation 0.10 in 0.05 in 0.19 in (2009)
Month to date precipitation 0.60  
Year to date precipitation 1.30  
Sea Level Pressure  
Sea Level Pressure 30.14 in    
Wind  
Wind Speed 12 mph (SE)    
Max Wind Speed 20 mph    
Max Gust Speed 24 mph    
T = Trace of Precipitation, MM = Missing Value Source: NWS Daily Summary

Daily Weather History Graph

Daily Weather History Graph

Search for Another Location

Airport or City:

Trip Planner

Search our weather history database for the weather conditions in past years. The results will help you decide how hot, cold, wet, or windy it might be!

Date:

Astronomy

Apr. 17, 2014 Rise Set
Actual Time 6:13 AM MDT 7:27 PM MDT
Civil Twilight 5:46 AM MDT 7:54 PM MDT
Nautical Twilight 5:13 AM MDT 8:26 PM MDT
Astronomical Twilight 4:40 AM MDT 9:00 PM MDT
Moon 10:12 PM MDT (4/17) 7:48 AM MDT (4/17)
Length of Visible Light 14h 08m
Length of Day
13h 14m
Waning Gibbous, 93% of the Moon is Illuminated
Apr 17
Waning Gibbous
Apr 22
Last Quarter
Apr 29
New
May 6
First Quarter
May 14
Full

Hourly Weather History & Observations

Time (MDT) Temp. Windchill Dew Point Humidity Pressure Visibility Wind Dir Wind Speed Gust Speed Precip Events Conditions
12:56 AM 42.1 °F 34.9 °F 35.1 °F 76% 30.03 in - NE 13.8 mph - N/A   Unknown
1:56 AM 41.0 °F 34.7 °F 35.1 °F 79% 30.02 in - NNE 10.4 mph - 0.01 in   Unknown
2:56 AM 39.9 °F 32.5 °F 35.1 °F 83% 30.04 in - NNE 12.7 mph - N/A   Unknown
3:56 AM 39.0 °F 31.4 °F 36.0 °F 89% 30.07 in - NNE 12.7 mph - N/A   Unknown
4:56 AM 37.0 °F 28.5 °F 36.0 °F 96% 30.09 in - NE 13.8 mph - 0.04 in   Unknown
5:56 AM 37.0 °F 29.8 °F 35.1 °F 93% 30.10 in - ENE 10.4 mph - 0.02 in   Unknown
6:56 AM 36.0 °F 29.0 °F 35.1 °F 97% 30.15 in - East 9.2 mph - 0.02 in   Unknown
7:56 AM 36.0 °F 30.3 °F 35.1 °F 97% 30.18 in - ESE 6.9 mph - 0.01 in   Unknown
8:56 AM 37.9 °F 33.5 °F 36.0 °F 93% 30.19 in - ESE 5.8 mph - N/A   Unknown
10:56 AM 41.0 °F 35.8 °F 37.0 °F 86% 30.22 in - SE 8.1 mph - N/A   Unknown
11:56 AM 42.1 °F 37.7 °F 37.9 °F 85% 30.21 in - SSE 6.9 mph - N/A   Unknown
12:56 PM 44.1 °F 37.4 °F 39.0 °F 82% 30.19 in - South 13.8 mph - N/A   Unknown
1:56 PM 46.0 °F 41.0 °F 37.9 °F 73% 30.17 in - South 10.4 mph - N/A   Unknown
2:56 PM 46.9 °F - 37.9 °F 71% 30.16 in - South 9.2 mph - N/A   Unknown
3:56 PM 48.9 °F - 37.0 °F 64% 30.14 in - South 13.8 mph - N/A   Unknown
4:56 PM 50.0 °F - 37.0 °F 61% 30.14 in - South 12.7 mph - N/A   Unknown
5:56 PM 48.9 °F - 35.1 °F 59% 30.13 in - South 16.1 mph - N/A   Unknown
6:56 PM 46.9 °F - 36.0 °F 66% 30.12 in - SSE 16.1 mph - N/A   Unknown
7:56 PM 43.0 °F 36.8 °F 35.1 °F 74% 30.14 in - SSE 11.5 mph - N/A   Unknown
8:56 PM 39.9 °F 31.8 °F 33.1 °F 77% 30.17 in - SSE 15.0 mph - N/A   Unknown
9:56 PM 37.9 °F 29.6 °F 32.0 °F 79% 30.17 in - SSE 13.8 mph - N/A   Unknown
10:56 PM 36.0 °F 27.5 °F 32.0 °F 86% 30.16 in - South 12.7 mph - N/A   Unknown
11:56 PM 36.0 °F 27.1 °F 30.9 °F 82% 30.16 in - South 13.8 mph - N/A   Unknown